Preview of NWS' New Version of Forecast
This preview is not operational and should not be used for support decisions.

Regional Weather Roundup (RWR)

Issued by National Weather Service (NWS)

                            
000
ASUS46 KPQR 201810
RWROR 

OREGON REGIONAL WEATHER ROUNDUP
NATIONAL WEATHER SERVICE PORTLAND OR
1100 AM PDT TUE AUG 20 2019

NOTE: "FAIR" INDICATES FEW OR NO CLOUDS BELOW 12,000 FEET WITH
NO SIGNIFICANT WEATHER AND/OR OBSTRUCTIONS TO VISIBILITY.

ORZ001>013-201900-
NORTHWEST OREGON

  
CITY           SKY/WX    TMP DP  RH WIND       PRES   REMARKS
ASTORIA        FAIR      65  59  81 SW12      29.97R                  
6HR MIN TEMP:  51; 6HR MAX TEMP:  66;                                

TILLAMOOK      CLOUDY    68  57  68 W3        30.00S                  
NEWPORT        PTSUNNY   64  55  72 SW5       30.04R                  
FLORENCE       CLOUDY    63  55  77 SW6       30.02R                  
PORTLAND       PTSUNNY   72  57  59 NE5       29.96F                  
6HR MIN TEMP:  58; 6HR MAX TEMP:  72;                                

VANCOUVER WA   FAIR      71  57  61 CALM      29.96S                  
6HR MIN TEMP:  55; 6HR MAX TEMP:  71;                                

SCAPPOOSE      FAIR      71  57  61 CALM      29.95S                  
6HR MIN TEMP:  52; 6HR MAX TEMP:  71;                                

HILLSBORO      FAIR      73  56  54 VRB3      29.96S                  
6HR MIN TEMP:  50; 6HR MAX TEMP:  73;                                

AURORA         FAIR      73  56  54 VRB3      29.97F                  
6HR MIN TEMP:  55; 6HR MAX TEMP:  73;                                

MCMINNVILLE    FAIR      76  57  51 SW3       29.96F                  
6HR MIN TEMP:  51; 6HR MAX TEMP:  76;                                

SALEM          FAIR      75  56  51 VRB6      29.96S                  
6HR MIN TEMP:  54; 6HR MAX TEMP:  75;                                

CORVALLIS      FAIR      73  58  59 S5        29.99S                  
EUGENE         PTSUNNY   74  56  53 SW9       29.99S                  
6HR MIN TEMP:  53; 6HR MAX TEMP:  74;                                

CRESWELL       SUNNY     73  57  56 VRB5      29.98S                  
$$

ORZ021-028-201900-
SOUTHWEST OREGON

  
CITY           SKY/WX    TMP DP  RH WIND       PRES   REMARKS
NORTH BEND     CLOUDY    64  58  80 W9        30.04S                  
6HR MIN TEMP:  55; 6HR MAX TEMP:  68;                                

BROOKINGS      LGT RAIN  55  55 100 VRB5      30.07S FOG              
ROSEBURG       FAIR      75  57  53 VRB3      29.99S                  
6HR MIN TEMP:  60; 6HR MAX TEMP:  75;                                

GRANTS PASS    FAIR      77  52  41 CALM      30.02S                  
MEDFORD        FAIR      77  52  41 NW5       29.97F                  
6HR MIN TEMP:  61; 6HR MAX TEMP:  77;                                

$$

ORZ014>016-041-201900-
COLUMBIA GORGE

  
CITY           SKY/WX    TMP DP  RH WIND       PRES   REMARKS
TROUTDALE      FAIR      73  56  54 VRB3      29.95F                  
6HR MIN TEMP:  54; 6HR MAX TEMP:  74;                                

HOOD RIVER     FAIR      72  52  49 CALM      29.94F                  
THE DALLES     FAIR      78  54  43 SW5       29.91F                  
6HR MIN TEMP:  58; 6HR MAX TEMP:  78; 6HR PCP: TRACE;                

$$

ORZ029>031-041-044-049-050-061>064-502-503-505>511-201900-
EASTERN OREGON

  
CITY           SKY/WX    TMP DP  RH WIND       PRES   REMARKS
MADRAS         FAIR      79  46  31 NE3       30.00F                  
REDMOND        FAIR      82  47  29 VRB3      30.01F                  
6HR MIN TEMP:  53; 6HR MAX TEMP:  82;                                

BEND           FAIR      81  45  28 CALM      30.02F                  
PRINEVILLE     FAIR      77  46  33 CALM      30.02S                  
KLAMATH FALLS  FAIR      71  43  36 E3        30.11S                  
6HR MIN TEMP:  47; 6HR MAX TEMP:  73;                                

LAKEVIEW       FAIR      74  33  22 S7        30.15F                  
HERMISTON      FAIR      80  52  37 VRB3      29.91F                  
6HR MIN TEMP:  55; 6HR MAX TEMP:  81;                                

PENDLETON      FAIR      84  46  26 NE5       29.93F                  
6HR MIN TEMP:  57; 6HR MAX TEMP:  84;                                

JOHN DAY       FAIR      80  45  28 CALM      30.03F                  
MEACHAM        NOT AVBL                                               
LA GRANDE      FAIR      74  45  35 NW5       30.02F                  
6HR MIN TEMP:  48; 6HR MAX TEMP:  74;                                

BAKER CITY     FAIR      79  48  33 NE3       30.04F                  
6HR MIN TEMP:  48; 6HR MAX TEMP:  79;                                

BURNS          FAIR      76  42  29 SE5       30.09F                  
6HR MIN TEMP:  49; 6HR MAX TEMP:  77;                                

ROME             N/A     86  38  18 VRB5      30.04F                  
6HR MIN TEMP:  52; 6HR MAX TEMP:  87;                                

ONTARIO        FAIR      88  51  28 S5        29.96F                  
6HR MIN TEMP:  62; 6HR MAX TEMP:  88;                                

$$